Temperature
14 13 13 13 13 13 13 13 13 13 12 12 12 12 12 12 12 12 12 12 12 12 12 12 12 12 12 12 12 11 11 11 11 11 11 11 11 11
14 13 13 13 13 13 13 13 13 13 12 12 12 12 12 12 12 12 12 12 12 12 12 12 12 12 12 11 11 11 11 11 11 11 11 11 11 10
13 13 13 13 13 13 13 13 13 13 13 12 12 12 12 12 12 12 12 12 12 12 11 11 12 12 11 11 11 11 11 11 11 11 11 11 10 10
13 13 13 13 13 13 13 13 13 12 12 12 12 12 12 12 12 12 12 11 11 11 11 11 11 11 11 11 11 11 11 11 10 10 10 10 10 10
13 13 13 13 13 13 13 13 12 12 12 12 12 12 12 12 12 12 11 11 11 11 11 11 11 11 11 11 11 11 11 10 10 10 10 10 10 10
13 13 13 12 12 12 12 12 12 12 12 12 12 12 12 12 11 11 11 11 11 11 11 11 11 11 10 10 10 10 10 10 10 10 10 10 10 10
13 13 13 12 12 12 12 12 12 12 12 12 12 12 12 11 11 11 11 11 11 11 11 11 10 10 10 10 10 10 10 10 10 10 10 10 9 9
12 12 12 12 12 12 12 12 12 12 12 12 12 12 11 11 11 11 11 11 11 10 10 10 10 10 10 10 10 10 10 10 10 9 9 9 9 9
12 12 12 12 12 12 12 12 12 12 11 11 12 11 11 11 11 11 11 10 10 10 10 10 10 10 10 10 10 9 9 9 9 9 9 9 9 9
12 12 12 12 12 12 12 11 11 11 11 11 11 11 11 11 10 10 10 10 10 10 10 10 10 10 10 9 9 9 9 9 9 9 9 9 9 8
11 11 11 12 12 11 11 11 11 11 11 11 11 11 10 10 10 10 10 10 10 10 10 9 9 9 9 9 9 9 9 9 9 8 8 8 8 8
11 11 11 11 11 11 11 11 11 11 11 11 10 10 10 10 10 10 10 10 9 9 9 9 9 9 9 9 9 9 8 8 8 8 8 8 8 8
11 11 11 11 11 11 11 11 11 10 10 10 10 10 10 10 10 9 9 9 9 9 9 9 8 8 8 8 8 8 8 8 8 8 8 7 7 7
10 10 10 10 10 10 10 10 10 10 10 10 10 10 10 9 9 9 9 9 9 9 9 8 8 8 8 8 8 8 8 8 8 7 7 7 7 7
10 10 10 10 10 10 10 10 9 9 9 9 9 9 9 9 9 9 9 9 8 8 8 8 8 8 8 7 7 7 7 7 7 7 7 7 7 7
10 9 9 9 9 9 9 9 9 9 9 9 9 9 8 8 8 8 8 8 8 8 8 8 8 7 7 7 7 7 7 7 7 7 7 6 6 6
9 9 9 9 9 9 9 9 8 8 8 8 8 8 8 8 8 8 8 7 7 8 8 7 7 7 7 7 7 7 7 7 6 6 6 6 6 6
8 8 8 8 8 8 8 8 8 8 8 8 8 8 7 7 7 7 7 7 7 7 7 7 7 7 7 6 6 6 6 6 6 6 5 5 6 5
8 8 8 8 8 8 8 8 7 7 7 7 7 7 7 7 7 7 6 6 6 7 7 7 6 6 6 6 6 6 6 6 6 5 5 5 5 5
7 7 7 7 7 7 7 7 7 7 7 7 7 6 6 6 6 6 6 6 6 6 6 6 6 6 6 6 5 6 6 5 5 5 5 5 4 4
6 6 6 6 6 6 6 6 6 6 6 6 6 6 6 6 6 6 6 6 6 6 6 6 6 6 5 5 5 5 5 5 5 4 4 4 4 4
6 6 6 6 6 6 6 6 6 6 6 6 6 6 6 6 5 5 5 5 5 5 5 5 5 5 5 5 5 5 5 4 4 4 4 4 3 3
5 5 5 5 5 5 5 5 5 5 5 5 5 5 5 5 5 5 5 5 5 5 5 5 4 4 4 4 4 4 4 4 4 3 3 3 3 3
Wind_Speed
2 2 2 1 2 2 3 4 4 2 1 2 1 1 1 1 2 3 2 2 2 2 2 2 2 3 3 3 4 3 4 3 3 3 2 2 1 1
1 2 2 1 2 2 2 2 2 3 2 2 1 1 1 1 3 2 2 3 3 3 2 2 2 2 2 3 3 4 3 3 3 2 2 1 0 0
1 2 2 2 2 2 2 3 2 3 3 1 0 1 1 1 3 3 3 3 3 2 2 2 2 2 2 2 3 3 3 3 2 2 2 1 0 1
1 2 2 2 2 2 3 3 3 2 3 2 0 1 0 0 1 2 2 2 2 2 1 1 1 1 2 1 2 2 2 3 3 2 2 1 1 1
2 2 2 3 2 2 3 2 2 2 2 3 1 0 0 1 1 2 2 2 2 2 1 1 1 1 1 1 2 2 3 3 2 2 2 1 1 1
1 2 2 3 4 3 3 3 3 3 3 3 2 0 0 0 1 1 1 1 2 2 2 1 0 0 0 1 1 2 2 2 2 2 2 1 1 2
0 1 1 2 4 4 3 4 4 3 3 3 2 1 0 1 1 1 1 1 2 1 1 1 1 1 1 1 1 1 2 2 2 1 1 1 1 1
1 1 1 1 2 2 4 5 6 6 5 3 2 3 3 2 2 2 1 0 2 1 0 1 0 1 2 2 2 2 2 3 3 3 2 2 2 2
2 1 1 1 1 1 2 3 4 5 7 6 4 4 4 4 3 2 2 2 2 1 1 1 0 1 2 3 3 3 3 3 3 3 3 3 3 3
2 3 3 2 2 2 2 2 1 2 4 4 5 5 4 5 5 4 4 2 0 0 2 1 1 1 2 3 3 3 4 4 4 4 4 4 4 4
2 2 3 3 3 4 3 3 2 2 2 4 4 3 3 4 5 3 3 2 1 1 1 2 1 1 1 2 3 3 4 4 5 5 6 6 5 5
2 2 4 4 4 5 4 4 4 3 2 1 1 1 2 3 5 5 4 3 2 2 2 2 1 1 1 2 1 2 2 3 5 5 6 6 5 4
3 3 3 4 4 5 5 5 5 4 2 2 1 0 0 1 3 4 4 4 4 3 3 3 2 2 2 2 2 1 2 2 2 3 5 5 5 5
4 4 4 4 4 4 4 4 5 4 2 2 1 1 2 2 3 3 4 5 5 4 5 5 3 3 3 2 2 2 1 2 2 2 3 3 4 5
4 5 5 4 3 3 3 4 3 3 3 2 3 3 3 3 2 1 1 2 2 3 4 5 4 3 3 4 3 2 2 2 3 3 3 3 3 3
2 3 3 2 2 2 1 2 2 3 3 4 4 3 2 1 1 1 1 1 1 2 2 4 5 5 4 4 3 3 3 3 2 3 3 3 3 4
1 1 0 1 1 1 1 2 2 2 3 3 3 2 2 2 2 2 1 2 2 2 2 1 2 4 4 3 3 4 4 3 3 3 2 3 4 5
2 1 2 2 3 3 3 2 2 3 3 3 3 3 3 3 3 2 2 3 3 4 3 2 1 1 1 2 5 5 4 4 3 3 3 3 4 4
1 2 3 3 3 3 3 3 3 3 3 3 3 3 3 3 3 3 3 3 3 4 3 2 2 3 3 4 3 5 5 3 2 2 3 4 4 4
1 3 3 4 3 3 3 3 3 2 2 3 3 4 4 4 3 4 4 4 4 3 3 3 4 5 6 5 3 2 5 4 3 4 3 3 3 4
3 3 4 4 4 4 4 3 3 3 3 3 4 4 4 4 4 5 5 5 4 4 5 5 6 6 3 1 2 2 2 5 5 4 3 2 2 2
3 4 4 4 4 4 4 3 3 3 4 4 4 4 4 5 5 5 5 5 5 5 5 4 1 1 2 4 5 4 3 2 4 5 5 5 3 3
4 4 4 4 4 4 4 4 4 4 4 4 4 4 4 5 5 5 5 5 4 4 3 2 1 2 3 4 4 4 4 3 2 3 4 7 9 10
Wind_Direction
190 176 170 181 170 169 158 159 155 172 244 277 299 321 343 19 23 40 33 35 36 43 43 53 67 70 74 76 74 79 91 90 84 77 68 63 67 96
167 152 158 161 145 142 146 143 142 156 187 236 242 288 9 44 36 46 34 26 34 47 56 70 87 88 89 90 88 80 78 85 79 74 74 73 77 181
141 161 174 154 145 144 135 136 136 139 156 242 287 360 49 40 31 44 30 21 19 40 57 70 84 92 95 94 104 99 90 92 92 83 73 67 108 114
189 161 171 150 148 149 146 153 161 159 155 171 279 22 23 13 37 34 23 17 8 17 46 60 74 93 99 106 110 110 108 100 96 92 81 71 113 135
191 181 182 150 159 159 153 157 163 156 144 155 173 169 9 48 51 22 15 1 353 350 8 23 87 106 103 105 117 129 121 107 101 94 84 80 111 135
187 188 185 175 181 176 169 170 153 141 138 144 154 165 217 23 87 52 347 348 337 357 13 5 329 207 163 154 150 149 144 134 122 105 90 92 120 142
194 202 198 181 187 181 175 173 160 153 149 150 160 141 176 162 198 204 209 323 323 322 347 349 6 1 332 274 213 201 192 185 187 185 164 151 152 160
218 255 227 181 195 190 185 180 172 170 175 169 173 188 217 209 187 179 168 116 295 304 126 311 20 281 290 260 251 241 235 226 218 206 196 188 188 188
210 212 212 216 187 183 177 171 182 184 181 178 186 206 205 202 177 180 187 192 224 244 145 271 309 276 278 270 258 244 235 227 217 209 209 213 205 201
216 211 202 216 197 159 155 155 187 211 201 192 197 212 212 195 186 190 193 185 277 263 148 200 268 263 298 284 271 251 244 241 238 229 223 224 221 212
239 220 200 217 212 165 155 169 204 262 232 204 204 214 220 198 173 145 142 146 246 265 184 182 220 268 298 286 283 270 245 239 240 237 231 225 220 213
253 245 219 211 207 184 180 182 202 232 225 210 201 223 218 203 188 184 182 180 200 245 217 184 196 170 291 294 309 295 266 251 247 243 236 226 215 202
231 245 241 217 207 199 195 203 212 202 192 187 198 254 220 203 206 203 197 190 194 226 203 174 184 176 203 264 299 289 252 256 259 255 247 234 218 205
227 234 231 213 211 208 207 215 197 172 166 167 185 235 250 251 241 219 211 210 214 225 200 178 187 187 186 221 259 276 274 264 245 249 251 254 240 229
228 224 221 211 206 212 212 207 186 175 173 188 216 233 236 239 228 212 207 211 243 252 213 197 196 194 195 214 228 235 254 267 239 235 238 235 236 226
237 231 213 196 187 203 212 215 211 201 196 207 219 227 218 200 206 204 213 216 246 290 248 220 208 191 202 216 217 237 228 234 242 228 227 249 253 241
168 136 133 173 193 220 233 232 223 212 218 218 210 211 210 205 218 202 199 194 214 245 262 243 211 206 211 200 220 237 235 243 242 223 216 246 257 248
135 173 209 218 221 222 227 235 230 228 228 222 214 213 215 214 217 205 196 206 230 244 247 237 193 175 234 266 229 227 230 238 242 217 210 230 259 256
155 207 221 225 233 232 226 225 230 233 221 214 217 218 219 217 211 214 214 221 239 245 248 228 204 196 221 252 252 213 216 230 216 222 228 229 246 256
222 225 230 230 231 233 237 234 234 230 222 223 224 222 218 216 220 224 222 223 235 244 250 237 225 221 225 238 240 247 217 213 217 233 242 247 266 281
234 238 236 233 231 230 235 238 232 228 230 227 229 227 223 219 225 229 230 231 230 237 245 250 248 236 229 194 232 253 251 231 221 221 222 237 266 277
235 237 238 236 231 227 228 230 235 237 232 230 235 232 227 223 227 229 230 232 233 236 247 262 264 206 208 222 242 250 262 275 263 249 232 219 212 228
240 243 241 236 232 228 225 225 227 236 236 234 236 237 232 229 230 229 231 233 235 239 245 254 245 231 236 235 245 254 256 260 267 269 271 266 254 255
Height
1536 1536 1536 1536 1536 1536 1537 1537 1538 1537 1538 1538 1539 1539 1539 1539 1539 1539 1538 1538 1537 1537 1537 1536 1536 1536 1536 1536 1536 1536 1536 1536 1537 1537 1538 1538 1539 1539
1534 1534 1534 1534 1535 1535 1535 1536 1536 1537 1536 1537 1537 1538 1538 1538 1538 1538 1538 1537 1537 1536 1536 1536 1536 1535 1535 1535 1535 1535 1535 1535 1535 1536 1536 1537 1537 1537
1532 1532 1532 1533 1533 1533 1534 1534 1535 1535 1535 1536 1536 1537 1537 1537 1537 1537 1537 1536 1536 1536 1535 1535 1535 1534 1534 1534 1534 1534 1534 1534 1534 1534 1535 1535 1535 1535
1530 1530 1531 1531 1531 1532 1532 1533 1533 1533 1534 1534 1535 1535 1536 1536 1536 1536 1536 1535 1535 1534 1534 1534 1534 1533 1533 1533 1533 1533 1533 1533 1533 1533 1533 1533 1533 1534
1528 1528 1529 1529 1530 1530 1530 1531 1531 1532 1532 1533 1533 1534 1534 1534 1534 1534 1534 1534 1533 1533 1533 1532 1532 1532 1532 1532 1532 1532 1531 1531 1531 1532 1532 1532 1532 1532
1526 1526 1527 1527 1528 1528 1528 1529 1529 1530 1530 1531 1531 1532 1532 1532 1532 1532 1532 1532 1532 1532 1531 1531 1531 1530 1530 1530 1530 1530 1530 1530 1530 1530 1530 1530 1530 1530
1524 1524 1525 1525 1526 1526 1527 1527 1527 1528 1528 1528 1529 1530 1530 1530 1530 1530 1530 1530 1530 1530 1529 1529 1529 1529 1528 1528 1528 1528 1528 1528 1528 1528 1528 1529 1529 1529
1521 1522 1523 1523 1524 1524 1525 1525 1526 1526 1526 1526 1527 1527 1528 1528 1528 1528 1528 1527 1527 1528 1527 1527 1527 1527 1527 1526 1526 1526 1526 1526 1526 1526 1526 1526 1527 1527
1519 1519 1520 1521 1521 1522 1522 1523 1523 1523 1524 1525 1525 1525 1525 1525 1526 1526 1526 1526 1525 1526 1525 1524 1525 1524 1525 1524 1524 1524 1524 1524 1524 1524 1524 1524 1524 1524
1516 1517 1517 1518 1518 1519 1519 1520 1520 1520 1521 1521 1522 1522 1523 1523 1523 1524 1523 1523 1523 1523 1523 1522 1522 1522 1522 1522 1522 1522 1522 1522 1522 1522 1521 1521 1521 1521
1514 1514 1514 1515 1515 1516 1516 1516 1516 1517 1518 1518 1519 1519 1520 1520 1520 1521 1520 1520 1520 1520 1520 1520 1519 1519 1519 1520 1520 1520 1519 1519 1519 1519 1518 1518 1518 1518
1510 1511 1511 1512 1512 1512 1513 1513 1513 1513 1514 1515 1515 1516 1516 1517 1517 1517 1517 1517 1517 1517 1517 1517 1516 1517 1516 1516 1517 1517 1516 1516 1516 1515 1515 1515 1515 1514
1507 1507 1508 1508 1508 1509 1509 1509 1510 1510 1511 1511 1512 1512 1512 1513 1513 1513 1513 1514 1514 1513 1514 1514 1513 1513 1513 1513 1513 1513 1513 1513 1512 1512 1511 1511 1511 1511
1503 1503 1504 1504 1505 1505 1506 1506 1506 1507 1507 1507 1507 1508 1508 1509 1509 1509 1509 1509 1510 1510 1510 1510 1510 1510 1509 1509 1508 1508 1509 1509 1508 1508 1508 1507 1507 1507
1499 1499 1500 1500 1501 1501 1502 1502 1502 1502 1502 1503 1503 1503 1504 1505 1505 1505 1505 1506 1506 1506 1506 1506 1506 1506 1505 1505 1504 1504 1504 1504 1504 1504 1503 1503 1502 1502
1494 1495 1495 1496 1496 1497 1497 1498 1498 1498 1498 1498 1499 1499 1500 1500 1500 1501 1501 1501 1501 1501 1501 1501 1501 1501 1500 1500 1500 1500 1500 1499 1499 1499 1499 1498 1498 1497
1490 1490 1490 1491 1491 1492 1493 1493 1494 1494 1494 1494 1494 1495 1495 1495 1496 1496 1496 1497 1496 1496 1496 1497 1497 1496 1496 1496 1495 1495 1495 1495 1495 1494 1494 1493 1493 1493
1485 1484 1485 1485 1486 1487 1487 1488 1489 1489 1489 1490 1490 1490 1491 1491 1491 1492 1492 1492 1491 1491 1492 1492 1492 1491 1491 1491 1491 1490 1490 1490 1490 1490 1489 1488 1487 1488
1480 1479 1480 1481 1481 1482 1482 1483 1484 1484 1485 1485 1485 1485 1486 1486 1486 1487 1487 1487 1487 1487 1487 1487 1487 1486 1486 1485 1485 1486 1485 1485 1485 1484 1484 1483 1482 1483
1475 1475 1475 1476 1476 1477 1477 1478 1478 1479 1480 1480 1480 1480 1481 1481 1481 1481 1481 1482 1482 1482 1481 1482 1482 1481 1481 1481 1480 1480 1481 1480 1480 1479 1479 1478 1478 1478
1470 1470 1470 1471 1471 1472 1472 1473 1473 1474 1474 1475 1475 1475 1476 1476 1476 1476 1476 1476 1477 1476 1476 1476 1476 1477 1476 1476 1475 1474 1475 1475 1475 1474 1474 1473 1472 1472
1465 1465 1465 1465 1465 1466 1466 1467 1467 1468 1468 1469 1469 1470 1470 1470 1470 1471 1471 1471 1471 1470 1470 1471 1471 1471 1470 1470 1469 1469 1469 1470 1470 1469 1469 1469 1468 1466
1459 1459 1459 1459 1460 1460 1461 1461 1461 1462 1463 1463 1464 1464 1464 1464 1465 1465 1465 1465 1465 1465 1465 1465 1465 1465 1464 1464 1464 1464 1464 1464 1464 1464 1464 1464 1464 1463